Location: Coed Ely
(51.5661°N, 3.4150°W)
Time: 18:07:37
(UTC+00:00)

ARGOS - Pass Details

Date: 28 January 2021
Orbit: 821 x 834 km, 98.4° (Epoch: 26 February)

Event Time Altitude Azimuth Distance (km) Brightness Sun altitude
Rises 18:23:11 0° 143° (SE) 3,348 6.1 -13.5°
Reaches altitude 10° 18:25:35 10° 138° (SE) 2,421 5.3 -13.8°
Maximum altitude 18:30:42 47° 66° (ENE) 1,091 3.4 -14.6°
Drops below altitude 10° 18:35:51 10° 354° (N) 2,444 5.6 -15.4°
Sets 18:38:17 0° 349° (N) 3,384 6.4 -15.8°
